CW9127 Weather Reports


Display with metric or nautical units.
time (UTC)temp
F
wind
direction
speed
MPH
gust
MPH
rain 1hr
in
rain 24hr
in
rain mn
in
humidity
%
barometer
mb
20210916155718 79 0.0 1.0 0.00 0.11 0.01 79 1018.0
20210916155220 79 0.0 0.0 0.00 0.11 0.01 80 1018.1
20210916154720 78 0.0 0.0 0.00 0.11 0.01 79 1018.0
20210916154220 78 0.0 0.0 0.00 0.11 0.01 83 1017.9
20210916153720 77 0.0 0.0 0.00 0.11 0.01 83 1017.9
20210916153220 76 0.0 0.0 0.00 0.11 0.01 83 1017.8
20210916152720 76 0.0 0.0 0.00 0.11 0.01 80 1017.7
20210916152221 76 0.0 0.0 0.00 0.11 0.01 83 1017.7
20210916151721 76 0.0 0.0 0.00 0.11 0.01 83 1017.8
20210916151220 77 0.0 0.0 0.00 0.11 0.01 82 1017.8
20210916150721 76 0.0 1.0 0.00 0.11 0.01 83 1017.7
20210916150220 77 0.0 0.0 0.00 0.11 0.01 82 1017.7
20210916145721 76 0.0 1.0 0.00 0.11 0.01 81 1017.6
20210916145220 77 0.0 0.0 0.00 0.11 0.01 82 1017.7
20210916144720 76 0.0 0.0 0.00 0.11 0.01 85 1017.6
20210916144221 76 0.0 0.0 0.00 0.11 0.01 83 1017.6
20210916143720 75 0.0 0.0 0.00 0.11 0.01 85 1017.6
20210916143220 75 0.0 0.0 0.00 0.11 0.01 85 1017.6
20210916142720 75 0.0 0.0 0.00 0.11 0.01 86 1017.6
20210916142220 74 0.0 0.0 0.00 0.11 0.01 87 1017.6
20210916141722 74 0.0 0.0 0.00 0.11 0.01 86 1017.6
20210916141220 73 0.0 0.0 0.00 0.11 0.01 88 1017.6
20210916140720 73 0.0 0.0 0.00 0.11 0.01 88 1017.5
20210916140220 73 0.0 0.0 0.00 0.11 0.01 90 1017.5
20210916135720 72 45 4.0 6.0 0.00 0.11 0.01 89 1017.4
20210916135220 72 0.0 0.0 0.00 0.11 0.01 90 1017.4
20210916134720 72 90 3.0 6.0 0.00 0.11 0.01 89 1017.3
20210916134220 72 0.0 0.0 0.00 0.11 0.01 90 1017.3
20210916133720 72 90 1.0 5.0 0.00 0.11 0.01 89 1017.3
20210916133220 72 90 3.0 6.0 0.00 0.11 0.01 89 1017.2
20210916132721 72 0.0 0.0 0.00 0.11 0.01 90 1017.2
20210916132220 72 0.0 0.0 0.00 0.11 0.01 91 1017.1
20210916131720 71 0.0 0.0 0.00 0.11 0.01 92 1017.1
20210916131220 70 0.0 0.0 0.00 0.11 0.01 93 1017.1
20210916130720 70 0.0 0.0 0.00 0.11 0.01 95 1017.0
20210916130220 69 0.0 0.0 0.00 0.11 0.01 95 1017.0
20210916125722 69 0.0 0.0 0.00 0.11 0.01 96 1017.1
20210916125220 69 0.0 0.0 0.00 0.11 0.01 96 1017.0
20210916124720 69 0.0 0.0 0.00 0.11 0.01 96 1017.0
20210916124220 68 0.0 0.0 0.00 0.11 0.01 96 1017.0
20210916123720 68 0.0 0.0 0.00 0.11 0.01 96 1017.0
20210916123221 68 0.0 0.0 0.00 0.11 0.01 96 1016.9
20210916122721 68 0.0 0.0 0.00 0.11 0.01 97 1016.7
20210916122220 68 0.0 0.0 0.00 0.11 0.01 96 1016.6
20210916121720 68 0.0 0.0 0.00 0.11 0.01 96 1016.5
20210916121222 67 0.0 0.0 0.00 0.11 0.01 96 1016.4
20210916120720 67 0.0 0.0 0.00 0.11 0.01 97 1016.4
20210916120220 67 0.0 0.0 0.00 0.11 0.01 97 1016.3
20210916115720 67 0.0 0.0 0.00 0.11 0.01 97 1016.3
20210916115220 67 0.0 0.0 0.00 0.11 0.01 96 1016.3
20210916114720 67 0.0 0.0 0.00 0.11 0.01 96 1016.3
20210916114220 67 0.0 0.0 0.00 0.11 0.01 96 1016.2
20210916113720 67 0.0 0.0 0.00 0.11 0.01 96 1016.2
20210916113220 67 0.0 0.0 0.00 0.11 0.01 96 1016.2
20210916112719 67 0.0 0.0 0.00 0.11 0.01 96 1016.1
20210916112219 67 0.0 0.0 0.00 0.11 0.01 96 1016.1
20210916111720 67 0.0 0.0 0.00 0.11 0.01 96 1016.2
20210916111220 67 0.0 0.0 0.00 0.11 0.01 96 1016.2
20210916110720 67 0.0 0.0 0.00 0.11 0.01 96 1016.2
20210916110221 67 0.0 0.0 0.00 0.11 0.01 96 1016.1
20210916105719 67 0.0 0.0 0.00 0.11 0.01 96 1016.2
20210916105220 67 0.0 0.0 0.00 0.11 0.01 96 1016.3
20210916104720 67 0.0 0.0 0.00 0.11 0.01 96 1016.2
20210916104219 67 0.0 0.0 0.00 0.11 0.01 96 1016.2
20210916103720 67 0.0 0.0 0.00 0.11 0.01 96 1016.1
20210916103220 68 0.0 0.0 0.00 0.11 0.01 96 1016.1
20210916102720 68 0.0 0.0 0.00 0.11 0.01 96 1016.1
20210916102219 68 0.0 0.0 0.00 0.11 0.01 96 1016.2
20210916101722 68 0.0 0.0 0.00 0.11 0.01 96 1016.2
20210916101219 68 0.0 0.0 0.00 0.11 0.01 96 1016.3
20210916100720 67 0.0 0.0 0.00 0.11 0.01 96 1016.3
20210916100219 67 0.0 0.0 0.00 0.11 0.01 96 1016.3
20210916095719 67 0.0 0.0 0.00 0.11 0.01 96 1016.3
20210916095219 67 0.0 0.0 0.00 0.11 0.01 96 1016.3
20210916094719 67 0.0 0.0 0.00 0.11 0.01 96 1016.3
20210916094221 67 0.0 0.0 0.00 0.11 0.01 96 1016.3
20210916093719 67 0.0 0.0 0.00 0.11 0.01 96 1016.0
20210916093219 67 0.0 0.0 0.00 0.11 0.01 96 1015.9
20210916092719 67 0.0 0.0 0.00 0.11 0.01 96 1016.0
20210916092219 67 0.0 0.0 0.00 0.11 0.01 96 1015.9
20210916091719 67 0.0 0.0 0.00 0.11 0.01 96 1015.9
20210916091219 67 0.0 0.0 0.00 0.11 0.01 96 1015.9
20210916090719 67 0.0 0.0 0.00 0.11 0.01 96 1015.9
20210916090220 67 0.0 0.0 0.00 0.11 0.01 96 1016.0
20210916085719 67 0.0 0.0 0.00 0.11 0.01 96 1016.0
20210916085219 67 0.0 0.0 0.00 0.11 0.01 96 1015.9
20210916084719 67 0.0 0.0 0.00 0.11 0.01 96 1015.8
20210916084219 67 0.0 0.0 0.00 0.11 0.01 96 1015.8
20210916083719 67 0.0 0.0 0.00 0.11 0.01 96 1015.8
20210916083219 67 0.0 0.0 0.00 0.11 0.01 96 1015.9
20210916082722 67 0.0 0.0 0.00 0.11 0.01 96 1015.9
20210916082219 67 0.0 0.0 0.00 0.11 0.01 96 1015.8
20210916081719 67 0.0 0.0 0.00 0.11 0.01 96 1015.9
20210916081220 67 0.0 0.0 0.00 0.11 0.01 96 1015.9
20210916080719 67 0.0 0.0 0.00 0.11 0.01 96 1015.8
20210916080220 67 0.0 0.0 0.00 0.11 0.01 96 1015.9
20210916075719 67 0.0 0.0 0.00 0.11 0.01 96 1016.0
20210916075219 67 0.0 0.0 0.00 0.11 0.01 96 1016.0
20210916074719 67 0.0 0.0 0.00 0.11 0.01 96 1016.1
20210916074220 67 0.0 0.0 0.00 0.11 0.01 96 1016.0
20210916073719 67 0.0 0.0 0.00 0.11 0.01 96 1016.0
20210916073219 67 0.0 0.0 0.00 0.11 0.01 96 1016.0
20210916072719 67 0.0 0.0 0.00 0.11 0.01 97 1016.1
20210916072219 67 0.0 0.0 0.00 0.11 0.01 97 1016.1
20210916071719 67 0.0 0.0 0.01 0.11 0.01 97 1016.1
20210916071219 67 0.0 0.0 0.01 0.11 0.01 97 1016.1
20210916070719 67 0.0 0.0 0.01 0.11 0.01 97 1016.2
20210916070219 67 0.0 0.0 0.01 0.11 0.01 97 1016.2
20210916065719 67 0.0 0.0 0.01 0.11 0.01 97 1016.3
20210916065221 67 0.0 0.0 0.01 0.11 0.01 97 1016.2
20210916064719 67 0.0 0.0 0.01 0.11 0.01 97 1016.2
20210916064219 67 0.0 0.0 0.01 0.11 0.01 97 1016.3
20210916063719 67 0.0 0.0 0.01 0.11 0.01 97 1016.2
20210916063219 67 0.0 0.0 0.01 0.11 0.01 96 1016.2
20210916062719 67 0.0 0.0 0.01 0.11 0.01 96 1016.0
20210916062219 67 0.0 0.0 0.01 0.11 0.01 96 1016.0
20210916061719 67 0.0 0.0 0.00 0.10 0.00 96 1016.0
20210916061220 67 0.0 0.0 0.00 0.10 0.00 96 1016.0
20210916060719 67 0.0 0.0 0.00 0.10 0.00 97 1016.0
20210916060219 67 0.0 0.0 0.00 0.10 0.00 97 1016.2
20210916055721 67 0.0 0.0 0.00 0.10 0.00 96 1016.1
20210916055221 67 0.0 0.0 0.00 0.10 0.00 96 1016.2
20210916054721 67 0.0 0.0 0.00 0.10 0.00 96 1016.2
20210916054221 67 0.0 0.0 0.00 0.10 0.00 96 1016.1
20210916053720 67 0.0 0.0 0.00 0.10 0.00 96 1016.2
20210916053221 67 0.0 0.0 0.00 0.10 0.00 97 1016.3
20210916052721 67 0.0 0.0 0.00 0.10 0.00 97 1016.4
20210916052221 67 0.0 0.0 0.00 0.10 0.00 96 1016.3
20210916051721 67 0.0 0.0 0.00 0.10 0.00 96 1016.4
20210916051221 68 0.0 0.0 0.00 0.10 0.00 96 1016.3
20210916050720 67 0.0 0.0 0.00 0.10 0.00 97 1016.3
20210916050221 67 0.0 0.0 0.00 0.10 0.00 96 1016.4
20210916045721 67 0.0 0.0 0.00 0.10 0.10 96 1016.5
20210916045221 68 0.0 0.0 0.00 0.10 0.10 96 1016.5
20210916044720 68 0.0 0.0 0.00 0.10 0.10 97 1016.4
20210916044220 68 0.0 0.0 0.00 0.10 0.10 97 1016.5
20210916043720 68 0.0 0.0 0.00 0.10 0.10 97 1016.4
20210916043221 68 0.0 0.0 0.00 0.10 0.10 97 1016.4
20210916042720 68 0.0 0.0 0.00 0.10 0.10 97 1016.3
20210916042220 68 0.0 0.0 0.00 0.10 0.10 96 1016.3
20210916041720 68 0.0 0.0 0.00 0.10 0.10 96 1016.2
20210916041221 68 0.0 0.0 0.00 0.10 0.10 96 1016.2
20210916040720 69 0.0 0.0 0.00 0.10 0.10 96 1016.2
20210916040221 69 0.0 0.0 0.00 0.10 0.10 96 1016.2
20210916035720 69 0.0 0.0 0.00 0.10 0.10 96 1016.2
20210916035223 69 0.0 0.0 0.00 0.10 0.10 96 1016.2
20210916034720 69 0.0 0.0 0.00 0.10 0.10 96 1016.2
20210916034221 69 0.0 0.0 0.00 0.10 0.10 96 1016.2
20210916033720 69 0.0 0.0 0.00 0.10 0.10 96 1016.2
20210916033220 69 0.0 0.0 0.00 0.10 0.10 96 1016.2
20210916032720 69 0.0 0.0 0.00 0.10 0.10 96 1016.2
20210916032220 69 0.0 0.0 0.00 0.10 0.10 96 1016.2
20210916031721 69 0.0 0.0 0.00 0.10 0.10 96 1016.2
20210916031220 69 0.0 0.0 0.00 0.10 0.10 96 1016.3
20210916030720 69 0.0 0.0 0.00 0.10 0.10 96 1016.4
20210916030220 69 0.0 0.0 0.00 0.10 0.10 96 1016.4
20210916025722 69 0.0 0.0 0.00 0.10 0.10 96 1016.3
20210916025220 69 0.0 0.0 0.00 0.10 0.10 96 1016.2
20210916024721 69 0.0 0.0 0.00 0.10 0.10 96 1016.2
20210916024220 69 0.0 0.0 0.00 0.10 0.10 96 1016.2
20210916023721 69 0.0 0.0 0.00 0.10 0.10 96 1016.2
20210916023220 69 0.0 0.0 0.00 0.10 0.10 96 1016.2
20210916022720 69 0.0 0.0 0.00 0.10 0.10 96 1016.1
20210916022221 69 0.0 0.0 0.00 0.10 0.10 96 1016.2
20210916021720 69 0.0 0.0 0.00 0.10 0.10 96 1016.2
20210916021220 69 0.0 0.0 0.00 0.10 0.10 96 1016.1
20210916020720 69 0.0 0.0 0.00 0.10 0.10 96 1016.1
20210916020220 69 0.0 0.0 0.00 0.10 0.10 96 1016.0
20210916015720 69 0.0 0.0 0.00 0.10 0.10 96 1016.0
20210916015223 69 0.0 0.0 0.00 0.10 0.10 96 1015.9
20210916014720 69 0.0 0.0 0.00 0.10 0.10 96 1015.9
20210916014220 69 0.0 0.0 0.00 0.10 0.10 96 1015.8
20210916013720 69 0.0 0.0 0.00 0.10 0.10 96 1015.8
20210916013220 69 0.0 0.0 0.00 0.10 0.10 96 1015.8
20210916012721 69 0.0 0.0 0.00 0.10 0.10 96 1015.7
20210916012220 69 0.0 0.0 0.00 0.10 0.10 96 1015.7
20210916011720 69 0.0 0.0 0.00 0.10 0.10 96 1015.6
20210916011220 69 0.0 0.0 0.00 0.10 0.10 96 1015.5
20210916010722 69 0.0 0.0 0.00 0.10 0.10 96 1015.4
20210916010220 69 0.0 0.0 0.00 0.10 0.10 96 1015.3
20210916005720 70 0.0 0.0 0.00 0.10 0.10 96 1015.4
20210916005220 70 0.0 0.0 0.00 0.10 0.10 96 1015.3
20210916004720 70 0.0 0.0 0.00 0.10 0.10 96 1015.2
20210916004220 70 0.0 0.0 0.00 0.10 0.10 96 1015.1
20210916003720 70 0.0 0.0 0.00 0.10 0.10 95 1015.0
20210916003220 70 0.0 0.0 0.00 0.10 0.10 96 1015.0
20210916002721 70 0.0 0.0 0.01 0.10 0.10 95 1014.9
20210916002220 70 0.0 0.0 0.03 0.10 0.10 95 1014.8
20210916001720 70 0.0 0.0 0.06 0.10 0.10 95 1014.8
20210916001220 70 0.0 0.0 0.09 0.10 0.10 95 1014.7
20210916000720 70 0.0 0.0 0.10 0.10 0.10 95 1014.7
20210916000220 70 0.0 0.0 0.10 0.10 0.10 95 1014.7
20210915235720 70 0.0 0.0 0.10 0.10 0.10 95 1014.6
20210915235220 70 0.0 0.0 0.10 0.10 0.10 95 1014.7
20210915234722 70 0.0 0.0 0.10 0.10 0.10 95 1014.7
20210915234220 70 0.0 0.0 0.10 0.10 0.10 94 1014.6
20210915233720 70 0.0 0.0 0.10 0.10 0.10 94 1014.7
20210915233220 70 0.0 0.0 0.10 0.10 0.10 94 1014.7
20210915232720 70 0.0 0.0 0.09 0.09 0.09 94 1014.8
20210915232220 70 0.0 0.0 0.07 0.07 0.07 94 1015.0
20210915231720 70 0.0 0.0 0.04 0.04 0.04 93 1014.9
20210915231217 71 0.0 0.0 0.01 0.01 0.01 92 1015.0
20210915230720 71 0.0 0.0 0.00 0.00 0.00 91 1015.0
20210915230220 72 0.0 0.0 0.00 0.00 0.00 89 1015.0
20210915225720 73 0.0 0.0 0.00 0.00 0.00 88 1014.9
20210915225220 73 68 1.0 2.0 0.00 0.00 0.00 85 1014.9
20210915224719 74 68 5.0 8.0 0.00 0.00 0.00 83 1014.9
20210915224219 75 0.0 0.0 0.00 0.00 0.00 83 1014.9
20210915223720 75 0.0 0.0 0.00 0.00 0.00 82 1014.8
20210915223219 76 0.0 0.0 0.00 0.00 0.00 81 1014.7
20210915222720 77 180 3.0 6.0 0.00 0.00 0.00 78 1014.6
20210915222220 79 0.0 0.0 0.00 0.00 0.00 74 1014.6
20210915221719 79 0.0 0.0 0.00 0.00 0.00 74 1014.6
20210915221222 79 0.0 0.0 0.00 0.00 0.00 75 1014.4
20210915220719 79 0.0 0.0 0.00 0.00 0.00 75 1014.4
20210915220221 79 0.0 0.0 0.00 0.00 0.00 75 1014.5
20210915215720 79 0.0 0.0 0.00 0.00 0.00 75 1014.5
20210915215219 79 0.0 0.0 0.00 0.00 0.00 75 1014.4
20210915214720 79 0.0 0.0 0.00 0.00 0.00 75 1014.5
20210915214220 79 0.0 0.0 0.00 0.00 0.00 76 1014.5
20210915213720 79 0.0 0.0 0.00 0.00 0.00 74 1014.4
20210915213220 78 0.0 0.0 0.00 0.00 0.00 74 1014.4
20210915212719 78 0.0 0.0 0.00 0.00 0.00 73 1014.4
20210915212219 78 0.0 0.0 0.00 0.00 0.00 73 1014.4
20210915211719 78 0.0 0.0 0.00 0.00 0.00 74 1014.5
20210915211220 79 0.0 0.0 0.00 0.00 0.00 74 1014.5
20210915210719 79 0.0 0.0 0.00 0.00 0.00 75 1014.5
20210915210220 79 0.0 0.0 0.00 0.00 0.00 75 1014.6
20210915205719 79 0.0 0.0 0.00 0.00 0.00 75 1014.5
20210915205219 79 0.0 0.0 0.00 0.00 0.00 74 1014.6
20210915204719 79 0.0 0.0 0.00 0.00 0.00 72 1014.5
20210915204219 79 0.0 0.0 0.00 0.00 0.00 72 1014.5
20210915203719 79 0.0 0.0 0.00 0.00 0.00 72 1014.5
20210915203220 79 0.0 0.0 0.00 0.00 0.00 72 1014.6
20210915202719 80 0.0 0.0 0.00 0.00 0.00 71 1014.6
20210915202219 80 0.0 0.0 0.00 0.00 0.00 70 1014.7
20210915201720 80 0.0 0.0 0.00 0.00 0.00 70 1014.6
20210915201219 80 0.0 0.0 0.00 0.00 0.00 71 1014.7
20210915200719 80 0.0 0.0 0.00 0.00 0.00 73 1014.7
20210915200220 80 0.0 0.0 0.00 0.00 0.00 70 1014.8
20210915195719 81 0.0 0.0 0.00 0.00 0.00 71 1014.9
20210915195219 81 0.0 0.0 0.00 0.00 0.00 70 1015.0
20210915194720 80 0.0 0.0 0.00 0.00 0.00 71 1015.0
20210915194219 80 0.0 0.0 0.00 0.00 0.00 71 1015.1
20210915193719 79 0.0 0.0 0.00 0.00 0.00 73 1015.1
20210915193219 79 0.0 0.0 0.00 0.00 0.00 72 1015.1
20210915192719 79 0.0 0.0 0.00 0.00 0.00 74 1015.0
20210915192219 79 0.0 0.0 0.00 0.00 0.00 72 1015.3
20210915191720 79 0.0 0.0 0.00 0.00 0.00 73 1015.3
20210915191219 79 0.0 0.0 0.00 0.00 0.00 72 1015.4
20210915190719 79 0.0 0.0 0.00 0.00 0.00 72 1015.4
20210915190220 79 0.0 0.0 0.00 0.00 0.00 73 1015.4
20210915185720 79 0.0 0.0 0.00 0.00 0.00 72 1015.4
20210915185219 79 0.0 0.0 0.00 0.00 0.00 73 1015.5
20210915184719 79 0.0 0.0 0.00 0.00 0.00 74 1015.6
20210915184219 79 0.0 0.0 0.00 0.00 0.00 73 1015.6
20210915183720 79 0.0 0.0 0.00 0.00 0.00 74 1015.7
20210915183219 78 0.0 0.0 0.00 0.00 0.00 74 1015.8
20210915182721 78 0.0 0.0 0.00 0.00 0.00 75 1015.9
20210915182221 78 0.0 0.0 0.00 0.00 0.00 75 1016.0
20210915181721 78 0.0 0.0 0.00 0.00 0.00 75 1016.0
20210915181224 78 0.0 0.0 0.00 0.00 0.00 75 1016.1
20210915180721 79 0.0 0.0 0.00 0.00 0.00 75 1016.1
20210915180221 79 0.0 0.0 0.00 0.00 0.00 76 1016.1
20210915175721 78 0.0 0.0 0.00 0.00 0.00 76 1016.2
20210915175222 78 0.0 0.0 0.00 0.00 0.00 77 1016.2
20210915174721 78 0.0 0.0 0.00 0.00 0.00 78 1016.3
20210915174221 79 0.0 0.0 0.00 0.00 0.00 78 1016.4
20210915173721 78 0.0 0.0 0.00 0.00 0.00 78 1016.4
20210915173221 78 0.0 0.0 0.00 0.00 0.00 79 1016.5
20210915172721 78 0.0 0.0 0.00 0.00 0.00 78 1016.4
20210915172222 78 0.0 0.0 0.00 0.00 0.00 81 1016.5
20210915171721 78 0.0 0.0 0.00 0.00 0.00 81 1016.7
20210915171221 78 0.0 0.0 0.00 0.00 0.00 80 1016.7
20210915170721 77 0.0 0.0 0.00 0.00 0.00 82 1016.8
20210915170223 77 0.0 0.0 0.00 0.00 0.00 82 1016.8
20210915165721 77 0.0 0.0 0.00 0.00 0.00 82 1017.0
20210915165221 77 0.0 0.0 0.00 0.00 0.00 84 1017.1
20210915164721 77 0.0 0.0 0.00 0.00 0.00 82 1017.0
20210915164221 77 0.0 0.0 0.00 0.00 0.00 82 1017.1
20210915163721 77 0.0 0.0 0.00 0.00 0.00 84 1017.1
20210915163221 77 0.0 0.0 0.00 0.00 0.00 84 1017.2
20210915162721 77 0.0 0.0 0.00 0.00 0.00 84 1017.1
20210915162221 77 0.0 0.0 0.00 0.00 0.00 85 1017.1
20210915161722 77 0.0 0.0 0.00 0.00 0.00 85 1017.2
20210915161221 77 0.0 0.0 0.00 0.00 0.00 86 1017.2
20210915160720 76 0.0 0.0 0.00 0.00 0.00 85 1017.2
20210915160220 76 0.0 0.0 0.00 0.00 0.00 85 1017.1